Regional Weather Roundup
Issued by NWS

Home | Current Version | Previous Version | Text Only | Print | Product List | Glossary Off
Versions: 1 2 3 4 5 6 7 8 9 10 11 12 13 14 15 16 17 18 19 20 21 22 23 24 25 26 27 28 29 30 31 32 33 34 35 36 37 38 39 40 41 42 43 44 45 46 47 48 49 50

000
ASUS43 KMKX 152200
RWRWI

WISCONSIN REGIONAL WEATHER ROUNDUP
NATIONAL WEATHER SERVICE MILWAUKEE/SULLIVAN WI
500 PM CDT MON SEP 15 2014

NOTE: "FAIR" INDICATES FEW OR NO CLOUDS BELOW 12,000 FEET WITH NO
SIGNIFICANT WEATHER AND/OR OBSTRUCTIONS TO VISIBILITY.

WIZ001-002-006>008-014>016-023>028-152300-
NORTHWEST WISCONSIN

CITY           SKY/WX    TMP DP  RH WIND       PRES   REMARKS
SUPERIOR ARPT  CLOUDY    59  37  44 NW9       30.16S
ASHLAND        SUNNY     56  36  47 NW8       30.16F
HAYWARD        PTSUNNY   56  35  45 VRB7      30.17R
SIREN          PTSUNNY   58  35  43 NW7       30.18S
RICE LAKE      SUNNY     58  34  40 W12       30.18S
LADYSMITH      MOSUNNY   59  37  44 W10       30.17S
EAU CLAIRE     NOT AVBL
MENOMONIE      PTCLDY    62  34  35 NW12      30.17F
NEW RICHMOND   MOSUNNY   59  35  39 N9        30.19S
OSCEOLA        PTSUNNY   62  38  41 W14       30.21S
$$

WIZ003>005-009-010-017-018-152300-
NORTH CENTRAL WISCONSIN

CITY           SKY/WX    TMP DP  RH WIND       PRES   REMARKS
WOODRUFF       MOSUNNY   57  37  46 NW13G18   30.13R
RHINELANDER    MOSUNNY   58  37  45 NW12      30.12S
EAGLE RIVER    CLOUDY    58  35  43 NW10      30.11S
LAND O LAKES   PTSUNNY   57  38  49 W10G17    30.12S
PHILLIPS       PTSUNNY   56  36  46 NW9       30.13S
TOMAHAWK       MOSUNNY   58  36  43 NW10G17   30.13S
MEDFORD        CLOUDY    57  38  48 NW14      30.13S
MERRILL        PTSUNNY   59  39  47 NW10      30.11S
$$

WIZ029-030-035-036-043>047-152300-
CENTRAL WISCONSIN

CITY           SKY/WX    TMP DP  RH WIND       PRES   REMARKS
WAUSAU         CLOUDY    59  41  51 NW8       30.10S
MOSINEE        MOSUNNY   59  43  55 NW9       30.12F
MARSHFIELD     MOSUNNY   59  40  49 N14       30.13S
STEVENS POINT  CLOUDY    57  42  57 NW5       30.12S
WAUPACA        MOSUNNY   59  49  70 W3        30.12R
WAUTOMA        NOT AVBL
WISC RAPIDS    LGT RAIN  59  47  64 NW7       30.14R
CAMP DOUGLAS   NOT AVBL
$$

WIZ011>013-019>022-031-037>040-048>050-152300-
NORTHEAST WISCONSIN

CITY           SKY/WX    TMP DP  RH WIND       PRES   REMARKS
ANTIGO         MOSUNNY   55  42  63 NW9       30.11R
STURGEON BAY   PTSUNNY   59  45  58 W8        30.10R
GREEN BAY      MOSUNNY   61  49  64 W6        30.10F
MANITOWOC      NOT AVBL
APPLETON       MOSUNNY   75  46  35 W6        30.12S
CLINTONVILLE   MOSUNNY   61  39  44 W8        30.10S
OSHKOSH        PTSUNNY   58  49  72 NW8       30.11S
$$

WIZ032>034-041-042-053>061-152300-
SOUTHWEST WISCONSIN

CITY           SKY/WX    TMP DP  RH WIND       PRES   REMARKS
LA CROSSE      PTSUNNY   63  46  54 NW12      30.16S
SPARTA         MOSUNNY   60  45  57 NW8       30.16S
VIROQUA        MOCLDY    56  45  65 N7        30.16S
BOSCOBEL       SUNNY     62  45  53 N7        30.16F
PRAIRIE DU CHI SUNNY     59  43  55 N7        30.16F
PLATTEVILLE    CLOUDY    56  50  79 CALM      30.16S
$$

WIZ056-057-062-063-064-067-068-152300-
SOUTH CENTRAL WISCONSIN

CITY           SKY/WX    TMP DP  RH WIND       PRES   REMARKS
BARABOO/DELLS  MOSUNNY   57  44  61 NW5       30.14S
LONE ROCK      NOT AVBL
WATERTOWN      PTSUNNY   54  50  87 N3        30.12S
MADISON        PTSUNNY   56  48  74 N8        30.14R
MIDDLETON      FAIR      57  47  69 N8        30.14S
MONROE         CLOUDY    52  50  93 N8        30.13S
JANESVILLE     CLOUDY    55  48  76 N8        30.13R
$$

WIZ051-052-058>065-066-070>072-152300-
SOUTHEAST WISCONSIN

CITY           SKY/WX    TMP DP  RH WIND       PRES   REMARKS
MILWAUKEE      PTSUNNY   54  51  90 N7        30.12R
WAUKESHA       PTSUNNY   52  48  87 N5        30.13R
MILWAUKEE/TIMM DRIZZLE   54  50  87 N7        30.13R
RACINE         CLOUDY    54  52  93 N7        30.12S
BURLINGTON     CLOUDY    52  50  92 NW6       30.11S
KENOSHA        CLOUDY    54  52  93 N7        30.11S
FOND DU LAC    CLOUDY    56  49  77 W8        30.12S
SHEBOYGAN      CLOUDY    55  50  83 NW7       30.12S
WEST BEND      PTSUNNY   54  48  82 NW6       30.12R
JUNEAU         CLOUDY    54  49  85 NW5       30.14S
$$

LSZ147-162-152300-
LAKE SUPERIOR

STATION/POSITION TIME  TEMP    WIND        PRES    WAVE
                       AIR SEA DIR/SP/G            HT/PER
                 (UTC) (F)     (DEG/KT/KT) (MB)    (FT/S)
W MID LAKE BUOY  2050   50 48  240/ 10/ 12 1019.9F   1/ 4
DEVILS ISLAND    2100   53     230/  9/ 10 1020.7F
PORT WING        2100   56     270/  6/  9 1021.3F
SAXON HARBOR     2100   56     290/ 11/ 14 1021.0F
$$

LMZ867-665-643>646-152300-
LAKE MICHIGAN

STATION/POSITION TIME  TEMP    WIND        PRES    WAVE
                       AIR SEA DIR/SP/G            HT/PER
                 (UTC) (F)     (DEG/KT/KT) (MB)    (FT/S)
N MID LAKE BUOY  2050   56 60  240/ 10/ 10 1018.8F   1/ 5
NORTHPORT PIER   2100   58     130/  9/ 11 1018.3F
KEWAUNEE LAKESHO 2100   57     270/  6/  8 1018.3S
SHEBOYGAN LAKESH 2100   53 48     CALM     1020.2F
PORT WASHINGTON  2100   54      80/  1/  2 1020.3
ATWATER BUOY     2100   55      10/ 10/ 12 1020.7F
MILWAUKEE LAKESH 2100   53      10/  8/ 10   N/A
S MID LAKE BUOY  2050   60 65  320/ 10/ 12 1018.9R   1/ 3
KENOSHA   LAKESH 2100   54     360/ 17/ 20 1019.0S
$$

TC  - TEMPERATURE IN CELSIUS
VSB - VISIBILITY IN STATUTE MILES
WCI - WIND CHILL INDEX
HX  - HEAT INDEX




USA.gov is the U.S. government's official web portal to all federal, state and local government web resources and services.